User: anonymous   Login
Location: Mt. Bigelow
(32.4165°N, 110.7345°W)
Time: 15:00:23
(UTC-07:00)
Language:

OTV 5 (USA 277) - Orbit

View from above orbital plane
View from above orbital plane
View from above satellite
View from above satellite

Ground track
Ground track

The orbit data is extracted from the following two-line orbital elements,

1 42932U 17052A   18312.72347800 0.00001500  00000-0  97489-5 0    02
2 42932  54.5848 201.5746 0013000 292.9124  67.0875 15.75191720    05
Epoch (UTC): 08 November 2018 17:21:48
Eccentricity: 0.0013000
inclination: 54.5848°
perigee height: 335 km
apogee height: 353 km
right ascension of ascending node: 201.5746°
argument of perigee: 292.9124°
revolutions per day: 15.75191720
mean anomaly at epoch: 67.0875°
orbit number at epoch: 0

The dashed part of the orbit path shows where the satellite is in the earth's shadow,  

DLR